TimePST,TemperatureF,Dew PointF,Humidity,Sea Level PressureIn,VisibilityMPH,Wind Direction,Wind SpeedMPH,Gust SpeedMPH,PrecipitationIn,Events,Conditions,WindDirDegrees,DateUTC
12:54 AM,45.0,43.0,93,30.22,9.0,Calm,Calm,-,N/A,,Mostly Cloudy,0,2011-11-25 08:54:00
1:15 AM,44.6,42.8,93,30.26,10.0,North,3.5,-,N/A,,Mostly Cloudy,350,2011-11-25 09:15:00
2:19 AM,46.4,44.6,93,30.27,9.0,Calm,Calm,-,N/A,,Overcast,0,2011-11-25 10:19:00
2:54 AM,46.0,45.0,96,30.25,7.0,Calm,Calm,-,N/A,,Overcast,0,2011-11-25 10:54:00
4:29 AM,48.2,46.4,93,30.29,4.0,Calm,Calm,-,0.01,Rain,Light Rain,0,2011-11-25 12:29:00
4:54 AM,48.0,46.0,93,30.27,6.0,Calm,Calm,-,0.01,,Overcast,0,2011-11-25 12:54:00
5:47 AM,48.2,46.4,93,30.29,6.0,North,4.6,-,N/A,,Overcast,360,2011-11-25 13:47:00
5:54 AM,48.0,46.0,93,30.27,7.0,North,3.5,-,N/A,,Overcast,360,2011-11-25 13:54:00
6:54 AM,48.0,46.0,93,30.28,10.0,Calm,Calm,-,N/A,,Overcast,0,2011-11-25 14:54:00
8:54 AM,51.1,48.0,89,30.31,10.0,NNW,4.6,-,N/A,,Overcast,340,2011-11-25 16:54:00
9:20 AM,51.8,48.2,88,30.34,10.0,NNW,4.6,-,N/A,,Overcast,340,2011-11-25 17:20:00
9:54 AM,52.0,48.0,86,30.33,6.0,Calm,Calm,-,N/A,,Overcast,0,2011-11-25 17:54:00
10:54 AM,53.1,50.0,89,30.34,7.0,Calm,Calm,-,N/A,,Overcast,0,2011-11-25 18:54:00
11:09 AM,53.6,50.0,88,30.36,10.0,Calm,Calm,-,N/A,,Overcast,0,2011-11-25 19:09:00
11:18 AM,53.6,50.0,88,30.36,10.0,Calm,Calm,-,N/A,,Overcast,0,2011-11-25 19:18:00
11:54 AM,55.9,48.9,77,30.32,10.0,Calm,Calm,-,N/A,,Mostly Cloudy,0,2011-11-25 19:54:00
12:07 PM,55.4,51.8,88,30.34,10.0,Calm,Calm,-,N/A,,Mostly Cloudy,0,2011-11-25 20:07:00
1:54 PM,57.0,50.0,77,30.30,10.0,SSW,4.6,-,N/A,,Overcast,210,2011-11-25 21:54:00
2:54 PM,57.0,50.0,77,30.30,10.0,ESE,3.5,-,N/A,,Overcast,110,2011-11-25 22:54:00
3:54 PM,57.0,50.0,77,30.31,10.0,SE,4.6,-,N/A,,Overcast,130,2011-11-25 23:54:00
4:54 PM,55.9,50.0,80,30.32,10.0,Calm,Calm,-,N/A,,Overcast,0,2011-11-26 00:54:00
5:54 PM,55.9,50.0,80,30.33,10.0,Calm,Calm,-,N/A,,Overcast,0,2011-11-26 01:54:00
6:54 PM,53.1,50.0,89,30.34,10.0,Calm,Calm,-,N/A,,Mostly Cloudy,0,2011-11-26 02:54:00
7:54 PM,52.0,48.0,86,30.35,10.0,ENE,4.6,-,N/A,,Overcast,70,2011-11-26 03:54:00
8:34 PM,46.4,44.6,93,30.38,10.0,NE,3.5,-,N/A,,Partly Cloudy,50,2011-11-26 04:34:00
8:54 PM,46.0,44.1,93,30.35,10.0,East,3.5,-,N/A,,Clear,80,2011-11-26 04:54:00
10:51 PM,42.8,39.2,87,30.38,1.8,Calm,Calm,-,N/A,,Clear,0,2011-11-26 06:51:00
10:54 PM,42.1,39.9,92,30.35,0.8,Calm,Calm,-,N/A,,Clear,0,2011-11-26 06:54:00
11:02 PM,39.2,39.2,100,30.38,0.5,Calm,Calm,-,N/A,Fog,Fog,0,2011-11-26 07:02:00
11:09 PM,41.0,39.2,93,30.38,1.0,Calm,Calm,-,N/A,,Clear,0,2011-11-26 07:09:00
11:30 PM,39.2,39.2,100,30.38,1.0,Calm,Calm,-,N/A,,Clear,0,2011-11-26 07:30:00
11:39 PM,37.4,37.4,100,30.38,1.0,Calm,Calm,-,N/A,,Mist,0,2011-11-26 07:39:00
11:52 PM,39.2,37.4,93,30.38,1.2,Calm,Calm,-,N/A,,Clear,0,2011-11-26 07:52:00
11:54 PM,37.9,37.0,97,30.36,1.0,Calm,Calm,-,N/A,,Mist,0,2011-11-26 07:54:00